Flag for Germany Weather past 2 weeks in Alfeld (Leine), Lower Saxony, Germany

Now
45 °F

Scattered clouds.


Feels Like: 43 °F
Forecast: 31 / 58 °F
Wind: 3 mph from North

Location: Braunschweig

Current Time: Apr 18, 2015 at 10:20:43 AM

Latest Report: Apr 18, 2015 at 9:50 AM


Visibility: N/A

Pressure: 30.30 "Hg

Humidity: 81%

Dew point: 39 °F

Location of Alfeld (Leine)Location

Historic Weather in Alfeld (Leine) — Graph

°F

Alfeld (Leine) temperature yesterday

Maximum temperature yesterday: 54 °F (at 4:50 PM)
Minimum temperature yesterday: 37 °F (at 7:20 AM)
Average temperature yesterday: 47 °F

Past Weeks' High & Low Weather Summary

 TemperatureHumidityPressure
High73 °F (Apr 15, 4:20 PM)100% (Apr 3, 7:50 AM)30.57 "Hg (Apr 3, 7:50 AM)
Low30 °F (Apr 4, 7:50 AM)31% (Apr 12, 4:50 PM)29.89 "Hg (Apr 15, 4:50 PM)
Average52 °F64%30.22 "Hg
* Reported Apr 2 11:20 PM — Apr 17 9:50 PM, Alfeld (Leine), Weather by CustomWeather, © 2015

Note: Actual official high and low records may vary slightly from our data, if they occured in-between our weather recording intervals... More about our weather records

Advertising

Alfeld (Leine) weather history for previous 24 hours

 ConditionsComfort  
Time TempWeatherWind HumidityBarometerVisibility
9:50 PM
Fri, Apr 17
46 °FClear.6 mph50%30.12 "Hg10 mi
9:20 PM46 °FClear.6 mph53%30.09 "Hg10 mi
8:50 PM46 °FSunny.5 mph53%30.09 "Hg10 mi
8:20 PM48 °FSunny.5 mph46%30.07 "Hg10 mi
7:50 PM50 °FSunny.6 mph43%30.07 "Hg10 mi
7:20 PM52 °FPassing clouds.9 mph41%30.04 "HgN/A
6:50 PM52 °FSunny.8 mph41%30.04 "Hg10 mi
6:20 PM54 °FSunny.9 mph38%30.04 "Hg10 mi
5:50 PM54 °FSunny.9 mph41%30.04 "Hg10 mi
5:20 PM52 °FSunny.13 mph38%30.04 "Hg10 mi
4:50 PM54 °FSunny.8 mph41%30.04 "Hg10 mi
4:20 PM52 °FSunny.10 mph47%30.04 "Hg10 mi
3:50 PM52 °FSunny.9 mph47%30.01 "Hg10 mi
3:20 PM50 °FSunny.9 mph50%30.04 "Hg10 mi
2:50 PM50 °FSunny.10 mph50%30.04 "Hg10 mi
2:20 PM50 °FSunny.9 mph50%30.01 "Hg10 mi
1:50 PM48 °FSunny.8 mph58%30.01 "Hg10 mi
1:20 PM48 °FMostly cloudy.9 mph62%30.04 "HgN/A
12:50 PM46 °FBroken clouds.8 mph71%30.04 "HgN/A
12:20 PM46 °FCloudy.10 mph71%30.01 "HgN/A
11:50 AM46 °FMore clouds than sun.12 mph71%30.01 "HgN/A
11:20 AM46 °FMostly cloudy.10 mph76%30.01 "HgN/A
10:50 AM46 °FCloudy.9 mph71%30.01 "HgN/A
10:20 AM46 °FPartly sunny.7 mph76%30.01 "HgN/A
Weather by CustomWeather, © 2015

See weather overviewHow to use our weather pages